When you browse on this site, cookies collect data to enhance your experience and personalize the content and advertising you see.
Visit our Privacy Policy to learn more. By continuing to use the site, you agree to this use of cookies and data.
  • In Romania
  • List of Countries
  • For 7 days
  • Water Temperature
  • Weather Map
  • Weather Widgets
  • user-avatar
    Login

    Hourly Weather Banbridge

    Today, 11 December, Wednesday

    Time Temperature Precipitation Wind Pressure Humidity
    00:00 +1°C° 0 mm 8 mps 742 mmHg 80%
    01:00 +1°C° 0 mm 8 mps 741 mmHg 80%
    02:00 +2°C° 0 mm 7 mps 741 mmHg 80%
    03:00 +2°C° 0 mm 7 mps 741 mmHg 80%
    04:00 0°C° 0 mm 7 mps 740 mmHg 81%
    05:00 0°C° 0 mm 7 mps 740 mmHg 83%
    06:00 +1°C° 0 mm 6 mps 740 mmHg 85%
    07:00 +1°C° 0 mm 6 mps 739 mmHg 86%
    08:00 +1°C° 0 mm 6 mps 739 mmHg 86%
    09:00 +1°C° 0 mm 6 mps 739 mmHg 86%
    10:00 +1°C° 0 mm 6 mps 739 mmHg 83%
    11:00 +2°C° 0 mm 6 mps 739 mmHg 80%
    12:00 +3°C° 0 mm 6 mps 739 mmHg 77%
    13:00 +2°C° 0 mm 6 mps 739 mmHg 76%
    14:00 +2°C° 0 mm 6 mps 740 mmHg 76%
    15:00 +2°C° 0 mm 6 mps 740 mmHg 76%
    16:00 +2°C° 0 mm 6 mps 740 mmHg 77%
    17:00 +1°C° 0 mm 5 mps 740 mmHg 79%
    18:00 +1°C° 0 mm 5 mps 741 mmHg 80%
    19:00 +1°C° 0 mm 5 mps 741 mmHg 81%
    20:00 -1°C° 0 mm 6 mps 741 mmHg 82%
    21:00 -1°C° 0 mm 6 mps 741 mmHg 82%
    22:00 0°C° 0 mm 5 mps 740 mmHg 83%
    23:00 0°C° 0 mm 5 mps 740 mmHg 83%

    Tomorrow, 12 December, Thursday

    Time Temperature Precipitation Wind Pressure Humidity
    00:00 0°C° 0 mm 5 mps 739 mmHg 83%
    01:00 0°C° 0 mm 5 mps 738 mmHg 85%
    02:00 0°C° 0 mm 5 mps 737 mmHg 87%
    03:00 0°C° 0 mm 5 mps 736 mmHg 88%
    04:00 0°C° 0.4 mm 5 mps 735 mmHg 91%
    05:00 +1°C° 0.4 mm 5 mps 734 mmHg 93%
    06:00 +1°C° 0.4 mm 5 mps 732 mmHg 96%
    07:00 +2°C° 1 mm 5 mps 731 mmHg 96%
    08:00 +4°C° 1 mm 4 mps 730 mmHg 96%
    09:00 +4°C° 1 mm 4 mps 729 mmHg 96%
    10:00 +5°C° 0 mm 4 mps 728 mmHg 94%
    11:00 +5°C° 0 mm 4 mps 727 mmHg 91%
    12:00 +6°C° 0 mm 5 mps 726 mmHg 89%
    13:00 +6°C° 0 mm 5 mps 725 mmHg 89%
    14:00 +6°C° 0 mm 4 mps 724 mmHg 90%
    15:00 +5°C° 0 mm 4 mps 723 mmHg 90%
    16:00 +5°C° 0.6 mm 4 mps 723 mmHg 91%
    17:00 +5°C° 0.6 mm 4 mps 722 mmHg 92%
    18:00 +5°C° 0.6 mm 4 mps 721 mmHg 93%
    19:00 +4°C° 1.3 mm 4 mps 721 mmHg 93%
    20:00 +3°C° 1.3 mm 5 mps 721 mmHg 93%
    21:00 +3°C° 1.3 mm 5 mps 720 mmHg 93%
    22:00 +3°C° 0.1 mm 6 mps 720 mmHg 91%
    23:00 +3°C° 0.1 mm 6 mps 720 mmHg 89%

    Day after tomorrow, 13 December, Friday

    Time Temperature Precipitation Wind Pressure Humidity
    00:00 +3°C° 0.1 mm 7 mps 720 mmHg 87%
    01:00 +3°C° 0.1 mm 7 mps 720 mmHg 86%
    02:00 +3°C° 0.1 mm 7 mps 721 mmHg 85%
    03:00 +3°C° 0.1 mm 7 mps 721 mmHg 85%
    04:00 +2°C° 0.1 mm 8 mps 721 mmHg 86%
    05:00 +2°C° 0.1 mm 8 mps 722 mmHg 88%
    06:00 +2°C° 0.1 mm 8 mps 723 mmHg 90%
    07:00 +2°C° 0 mm 8 mps 724 mmHg 88%
    08:00 +4°C° 0 mm 8 mps 726 mmHg 85%
    09:00 +3°C° 0 mm 9 mps 728 mmHg 83%
    10:00 +4°C° 0 mm 8 mps 729 mmHg 81%
    11:00 +4°C° 0 mm 8 mps 729 mmHg 79%
    12:00 +4°C° 0 mm 7 mps 730 mmHg 77%
    13:00 +3°C° 0 mm 6 mps 730 mmHg 79%
    14:00 +3°C° 0 mm 6 mps 730 mmHg 81%
    15:00 +3°C° 0 mm 5 mps 731 mmHg 82%
    16:00 +2°C° 0 mm 5 mps 730 mmHg 84%
    17:00 +3°C° 0 mm 4 mps 729 mmHg 86%
    18:00 +1°C° 0 mm 4 mps 729 mmHg 88%
    19:00 +1°C° 0.5 mm 4 mps 727 mmHg 90%
    20:00 +1°C° 0.5 mm 4 mps 725 mmHg 93%
    21:00 0°C° 0.5 mm 4 mps 724 mmHg 95%
    22:00 +2°C° 1.3 mm 3 mps 723 mmHg 96%
    23:00 +2°C° 1.3 mm 3 mps 722 mmHg 96%

    14 December, Saturday

    Time Temperature Precipitation Wind Pressure Humidity
    00:00 +2°C° 1.3 mm 3 mps 721 mmHg 97%
    01:00 +1°C° 0.7 mm 5 mps 722 mmHg 96%
    02:00 -1°C° 0.7 mm 6 mps 723 mmHg 96%
    03:00 -1°C° 0.7 mm 8 mps 724 mmHg 95%
    04:00 -1°C° 0.3 mm 9 mps 725 mmHg 90%
    05:00 -1°C° 0.3 mm 9 mps 726 mmHg 85%
    06:00 -1°C° 0.3 mm 9 mps 727 mmHg 80%
    07:00 -1°C° 0 mm 9 mps 727 mmHg 79%
    08:00 -3°C° 0 mm 9 mps 728 mmHg 77%
    09:00 -3°C° 0 mm 9 mps 728 mmHg 75%
    10:00 -3°C° 0 mm 9 mps 728 mmHg 75%
    11:00 -2°C° 0 mm 10 mps 729 mmHg 75%
    12:00 -2°C° 0 mm 10 mps 729 mmHg 75%
    13:00 -2°C° 0.1 mm 10 mps 729 mmHg 73%
    14:00 -3°C° 0.1 mm 10 mps 730 mmHg 71%
    15:00 -3°C° 0.1 mm 10 mps 730 mmHg 70%
    16:00 -3°C° 0 mm 9 mps 730 mmHg 69%
    17:00 -3°C° 0 mm 9 mps 730 mmHg 68%
    18:00 -4°C° 0 mm 9 mps 731 mmHg 68%
    19:00 -4°C° 0 mm 8 mps 731 mmHg 69%
    20:00 -4°C° 0 mm 8 mps 731 mmHg 71%
    21:00 -4°C° 0 mm 8 mps 732 mmHg 73%
    22:00 -3°C° 0 mm 6 mps 732 mmHg 75%
    23:00 -4°C° 0 mm 5 mps 731 mmHg 78%

    15 December, Sunday

    Time Temperature Precipitation Wind Pressure Humidity
    00:00 -3°C° 0 mm 4 mps 731 mmHg 80%
    01:00 -3°C° 0 mm 4 mps 731 mmHg 81%
    02:00 -3°C° 0 mm 4 mps 731 mmHg 81%
    03:00 -4°C° 0 mm 5 mps 731 mmHg 82%
    04:00 -2°C° 0.2 mm 5 mps 731 mmHg 83%
    05:00 -3°C° 0.2 mm 6 mps 731 mmHg 85%
    06:00 -3°C° 0.2 mm 6 mps 732 mmHg 86%
    07:00 -2°C° 0.4 mm 6 mps 732 mmHg 85%
    08:00 -2°C° 0.4 mm 6 mps 733 mmHg 84%
    09:00 -1°C° 0.4 mm 6 mps 733 mmHg 83%
    10:00 -1°C° 0 mm 6 mps 733 mmHg 81%
    11:00 -1°C° 0 mm 7 mps 734 mmHg 78%
    12:00 0°C° 0 mm 7 mps 735 mmHg 76%
    13:00 +1°C° 0 mm 6 mps 735 mmHg 77%
    14:00 0°C° 0 mm 5 mps 735 mmHg 79%
    15:00 0°C° 0 mm 4 mps 735 mmHg 81%
    16:00 0°C° 0.1 mm 3 mps 735 mmHg 85%
    17:00 0°C° 0.1 mm 3 mps 735 mmHg 90%
    18:00 -1°C° 0.1 mm 3 mps 735 mmHg 94%
    19:00 -1°C° 0.3 mm 3 mps 735 mmHg 95%
    20:00 -1°C° 0.3 mm 3 mps 735 mmHg 95%
    21:00 -1°C° 0.3 mm 3 mps 735 mmHg 95%
    22:00 -1°C° 0 mm 3 mps 735 mmHg 94%
    23:00 -1°C° 0 mm 3 mps 735 mmHg 92%

    16 December, Monday

    Time Temperature Precipitation Wind Pressure Humidity
    00:00 -1°C° 0 mm 3 mps 734 mmHg 91%
    01:00 0°C° 0.1 mm 3 mps 734 mmHg 90%
    02:00 0°C° 0.1 mm 3 mps 734 mmHg 88%
    03:00 -1°C° 0.1 mm 4 mps 734 mmHg 87%
    04:00 0°C° 0 mm 3 mps 734 mmHg 89%
    05:00 0°C° 0 mm 3 mps 734 mmHg 90%
    06:00 -1°C° 0 mm 3 mps 734 mmHg 91%
    07:00 -1°C° 0 mm 3 mps 734 mmHg 92%
    08:00 0°C° 0 mm 3 mps 735 mmHg 93%
    09:00 0°C° 0 mm 3 mps 735 mmHg 94%
    10:00 -1°C° 0 mm 4 mps 736 mmHg 93%
    11:00 -1°C° 0 mm 4 mps 736 mmHg 91%
    12:00 0°C° 0 mm 4 mps 737 mmHg 90%
    13:00 +1°C° 0 mm 3 mps 737 mmHg 90%
    14:00 +1°C° 0 mm 3 mps 738 mmHg 89%
    15:00 0°C° 0 mm 3 mps 738 mmHg 89%
    16:00 0°C° 0 mm 3 mps 738 mmHg 89%
    17:00 -1°C° 0 mm 3 mps 739 mmHg 90%
    18:00 -1°C° 0 mm 3 mps 739 mmHg 90%
    19:00 -1°C° 0 mm 3 mps 739 mmHg 90%
    20:00 -1°C° 0 mm 3 mps 740 mmHg 90%
    21:00 -1°C° 0 mm 3 mps 740 mmHg 91%
    22:00 -2°C° 0 mm 3 mps 740 mmHg 90%
    23:00 -2°C° 0 mm 3 mps 741 mmHg 90%
    Show more